Time,TemperatureF,DewpointF,PressureIn,WindDirection,WindDirectionDegrees,WindSpeedMPH,WindSpeedGustMPH,Humidity,HourlyPrecipIn,Conditions,Clouds,dailyrainin,SoftwareType,DateUTC
2013-11-18 00:03:00,44.8,40.0,30.00,WSW,238,4.0,5.0,83,0.00,,SKC,0.00,VWS V12.07,2013-11-18 06:03:00,
2013-11-18 00:09:00,44.8,40.0,30.00,WNW,283,6.0,6.0,83,0.00,,SKC,0.00,VWS V12.07,2013-11-18 06:09:00,
2013-11-18 00:15:00,44.9,40.1,30.00,WNW,284,4.0,9.0,83,0.00,,SKC,0.00,VWS V12.07,2013-11-18 06:15:00,
2013-11-18 00:21:00,44.9,40.1,30.01,NW,304,3.0,9.0,83,0.00,,SKC,0.00,VWS V12.07,2013-11-18 06:21:00,
2013-11-18 00:27:00,44.9,40.1,30.01,West,281,5.0,9.0,83,0.00,,SKC,0.00,VWS V12.07,2013-11-18 06:27:00,
2013-11-18 00:33:00,44.8,40.0,30.01,WNW,294,7.0,7.0,83,0.00,,SKC,0.00,VWS V12.07,2013-11-18 06:33:00,
2013-11-18 00:39:00,44.8,40.0,30.01,WNW,285,3.0,7.0,83,0.00,,SKC,0.00,VWS V12.07,2013-11-18 06:39:00,
2013-11-18 00:45:00,44.8,40.0,30.01,West,277,4.0,7.0,83,0.00,,SKC,0.00,VWS V12.07,2013-11-18 06:45:00,
2013-11-18 00:50:00,44.7,39.9,30.01,West,274,3.0,7.0,83,0.00,,SKC,0.00,VWS V12.07,2013-11-18 06:50:00,
2013-11-18 00:57:00,44.6,39.8,30.01,WNW,294,6.0,7.0,83,0.00,,SKC,0.00,VWS V12.07,2013-11-18 06:57:00,
2013-11-18 01:02:00,44.6,39.8,30.02,West,267,2.0,7.0,83,0.00,,SKC,0.00,VWS V12.07,2013-11-18 07:02:00,
2013-11-18 01:08:00,44.5,39.7,30.02,WNW,293,3.0,7.0,83,0.00,,SKC,0.00,VWS V12.07,2013-11-18 07:08:00,
2013-11-18 01:13:00,44.4,39.6,30.02,WNW,291,2.0,7.0,83,0.00,,SKC,0.00,VWS V12.07,2013-11-18 07:13:00,
2013-11-18 01:19:00,44.2,39.4,30.02,WNW,295,3.0,7.0,83,0.00,,SKC,0.00,VWS V12.07,2013-11-18 07:19:00,
2013-11-18 01:26:00,44.0,39.2,30.02,West,281,1.0,7.0,83,0.00,,SKC,0.00,VWS V12.07,2013-11-18 07:26:00,
2013-11-18 01:32:00,43.9,39.4,30.02,WSW,253,1.0,2.0,84,0.00,,SKC,0.00,VWS V12.07,2013-11-18 07:32:00,
2013-11-18 01:38:00,43.6,39.1,30.02,WNW,283,1.0,3.0,84,0.00,,SKC,0.00,VWS V12.07,2013-11-18 07:38:00,
2013-11-18 01:43:00,43.3,38.8,30.02,West,276,0.0,3.0,84,0.00,,SKC,0.00,VWS V12.07,2013-11-18 07:43:00,
2013-11-18 01:48:00,43.2,39.0,30.02,WNW,290,3.0,5.0,85,0.00,,SKC,0.00,VWS V12.07,2013-11-18 07:48:00,
2013-11-18 01:56:00,43.3,39.1,30.02,West,281,2.0,5.0,85,0.00,,SKC,0.00,VWS V12.07,2013-11-18 07:56:00,
2013-11-18 02:01:00,43.2,39.0,30.03,WNW,291,1.0,5.0,85,0.00,,SKC,0.00,VWS V12.07,2013-11-18 08:01:00,
2013-11-18 02:07:00,42.9,38.7,30.03,WNW,284,1.0,3.0,85,0.00,,SKC,0.00,VWS V12.07,2013-11-18 08:07:00,
2013-11-18 02:12:00,42.7,38.8,30.03,WNW,289,0.0,3.0,86,0.00,,SKC,0.00,VWS V12.07,2013-11-18 08:12:00,
2013-11-18 02:18:00,42.5,38.6,30.03,WSW,257,0.0,3.0,86,0.00,,SKC,0.00,VWS V12.07,2013-11-18 08:18:00,
2013-11-18 02:23:00,42.3,38.7,30.03,West,259,0.0,3.0,87,0.00,,SKC,0.00,VWS V12.07,2013-11-18 08:23:00,
2013-11-18 02:29:00,41.9,38.3,30.03,WSW,249,0.0,3.0,87,0.00,,SKC,0.00,VWS V12.07,2013-11-18 08:29:00,
2013-11-18 02:34:00,41.6,38.0,30.03,West,280,0.0,3.0,87,0.00,,SKC,0.00,VWS V12.07,2013-11-18 08:34:00,
2013-11-18 02:39:00,41.6,38.3,30.04,WNW,295,1.0,3.0,88,0.00,,SKC,0.00,VWS V12.07,2013-11-18 08:39:00,
2013-11-18 02:45:00,41.8,38.5,30.04,WNW,291,3.0,5.0,88,0.00,,SKC,0.00,VWS V12.07,2013-11-18 08:45:00,
2013-11-18 02:51:00,42.0,38.4,30.04,SW,235,4.0,5.0,87,0.00,,SKC,0.00,VWS V12.07,2013-11-18 08:51:00,
2013-11-18 02:57:00,42.2,38.3,30.05,WNW,288,3.0,6.0,86,0.00,,SKC,0.00,VWS V12.07,2013-11-18 08:57:00,
2013-11-18 03:03:00,42.1,38.2,30.05,West,277,1.0,3.0,86,0.00,,SKC,0.00,VWS V12.07,2013-11-18 09:03:00,
2013-11-18 03:09:00,41.9,38.0,30.05,WSW,256,0.0,3.0,86,0.00,,SKC,0.00,VWS V12.07,2013-11-18 09:09:00,
2013-11-18 03:15:00,41.6,38.0,30.05,WNW,283,3.0,3.0,87,0.00,,SKC,0.00,VWS V12.07,2013-11-18 09:15:00,
2013-11-18 03:22:00,41.3,37.7,30.05,West,269,1.0,3.0,87,0.00,,SKC,0.00,VWS V12.07,2013-11-18 09:22:00,
2013-11-18 03:28:00,41.0,37.7,30.05,WNW,288,0.0,3.0,88,0.00,,SKC,0.00,VWS V12.07,2013-11-18 09:28:00,
2013-11-18 03:33:00,40.9,37.9,30.05,WSW,238,4.0,5.0,89,0.00,,SKC,0.00,VWS V12.07,2013-11-18 09:33:00,
2013-11-18 03:39:00,41.0,38.0,30.05,WNW,287,1.0,5.0,89,0.00,,SKC,0.00,VWS V12.07,2013-11-18 09:39:00,
2013-11-18 03:44:00,40.9,37.9,30.05,WSW,250,1.0,5.0,89,0.00,,SKC,0.00,VWS V12.07,2013-11-18 09:44:00,
2013-11-18 03:50:00,40.6,37.6,30.05,WNW,291,1.0,5.0,89,0.00,,SKC,0.00,VWS V12.07,2013-11-18 09:50:00,
2013-11-18 03:56:00,40.4,37.7,30.06,WNW,300,3.0,5.0,90,0.00,,SKC,0.00,VWS V12.07,2013-11-18 09:56:00,
2013-11-18 04:01:00,40.6,37.9,30.06,West,274,3.0,5.0,90,0.00,,SKC,0.00,VWS V12.07,2013-11-18 10:01:00,
2013-11-18 04:07:00,40.7,38.0,30.06,WSW,253,5.0,8.0,90,0.00,,SKC,0.00,VWS V12.07,2013-11-18 10:07:00,
2013-11-18 04:13:00,40.7,38.0,30.07,WNW,289,6.0,8.0,90,0.00,,SKC,0.00,VWS V12.07,2013-11-18 10:13:00,
2013-11-18 04:18:00,40.7,37.7,30.07,WNW,291,2.0,8.0,89,0.00,,SKC,0.00,VWS V12.07,2013-11-18 10:18:00,
2013-11-18 04:24:00,40.6,37.6,30.07,WNW,288,5.0,8.0,89,0.00,,SKC,0.00,VWS V12.07,2013-11-18 10:24:00,
2013-11-18 04:31:00,40.6,37.6,30.08,WNW,293,4.0,8.0,89,0.00,,SKC,0.00,VWS V12.07,2013-11-18 10:31:00,
2013-11-18 04:37:00,40.7,37.7,30.08,WNW,282,6.0,9.0,89,0.00,,SKC,0.00,VWS V12.07,2013-11-18 10:37:00,
2013-11-18 04:42:00,40.7,37.7,30.08,West,278,6.0,9.0,89,0.00,,SKC,0.00,VWS V12.07,2013-11-18 10:42:00,
2013-11-18 04:47:00,40.7,37.4,30.08,West,277,3.0,9.0,88,0.00,,SKC,0.00,VWS V12.07,2013-11-18 10:47:00,
2013-11-18 04:53:00,40.7,37.4,30.08,WNW,284,3.0,9.0,88,0.00,,SKC,0.00,VWS V12.07,2013-11-18 10:53:00,
2013-11-18 04:59:00,40.6,37.3,30.08,WNW,287,5.0,9.0,88,0.00,,SKC,0.00,VWS V12.07,2013-11-18 10:59:00,
2013-11-18 05:06:00,40.4,37.1,30.09,WNW,291,5.0,7.0,88,0.00,,SKC,0.00,VWS V12.07,2013-11-18 11:06:00,
2013-11-18 05:12:00,40.4,37.1,30.09,West,270,2.0,8.0,88,0.00,,SKC,0.00,VWS V12.07,2013-11-18 11:12:00,
2013-11-18 05:18:00,40.2,36.9,30.09,WNW,288,4.0,8.0,88,0.00,,SKC,0.00,VWS V12.07,2013-11-18 11:18:00,
2013-11-18 05:24:00,40.1,36.8,30.09,NW,305,4.0,8.0,88,0.00,,SKC,0.00,VWS V12.07,2013-11-18 11:24:00,
2013-11-18 05:30:00,39.9,36.6,30.10,West,271,2.0,8.0,88,0.00,,SKC,0.00,VWS V12.07,2013-11-18 11:30:00,
2013-11-18 05:36:00,39.8,36.5,30.10,West,276,3.0,5.0,88,0.00,,SKC,0.00,VWS V12.07,2013-11-18 11:36:00,
2013-11-18 05:42:00,39.5,36.2,30.10,WSW,252,4.0,7.0,88,0.00,,SKC,0.00,VWS V12.07,2013-11-18 11:42:00,
2013-11-18 05:47:00,39.5,36.5,30.10,WNW,297,2.0,7.0,89,0.00,,SKC,0.00,VWS V12.07,2013-11-18 11:47:00,
2013-11-18 05:52:00,39.6,36.3,30.10,West,281,6.0,7.0,88,0.00,,SKC,0.00,VWS V12.07,2013-11-18 11:52:00,
2013-11-18 05:59:00,39.6,36.3,30.10,WNW,295,3.0,8.0,88,0.00,,SKC,0.00,VWS V12.07,2013-11-18 11:59:00,
2013-11-18 06:05:00,39.6,36.3,30.10,West,280,3.0,9.0,88,0.00,,SKC,0.00,VWS V12.07,2013-11-18 12:05:00,
2013-11-18 06:11:00,39.6,36.1,30.10,WSW,252,2.0,9.0,87,0.00,,SKC,0.00,VWS V12.07,2013-11-18 12:11:00,
2013-11-18 06:17:00,39.5,36.0,30.10,WNW,296,3.0,9.0,87,0.00,,SKC,0.00,VWS V12.07,2013-11-18 12:17:00,
2013-11-18 06:23:00,39.4,35.9,30.11,WNW,295,3.0,9.0,87,0.00,,SKC,0.00,VWS V12.07,2013-11-18 12:23:00,
2013-11-18 06:29:00,39.3,35.8,30.11,SW,226,0.0,9.0,87,0.00,,SKC,0.00,VWS V12.07,2013-11-18 12:29:00,
2013-11-18 06:35:00,39.1,35.6,30.12,WNW,287,4.0,5.0,87,0.00,,SKC,0.00,VWS V12.07,2013-11-18 12:35:00,
2013-11-18 06:41:00,39.2,35.7,30.13,West,264,5.0,8.0,87,0.00,,SKC,0.00,VWS V12.07,2013-11-18 12:41:00,
2013-11-18 06:46:00,39.1,35.6,30.13,SW,236,3.0,8.0,87,0.00,,SKC,0.00,VWS V12.07,2013-11-18 12:46:00,
2013-11-18 06:51:00,39.1,35.6,30.13,West,263,5.0,8.0,87,0.00,,SKC,0.00,VWS V12.07,2013-11-18 12:51:00,
2013-11-18 06:56:00,39.0,35.5,30.13,West,262,3.0,8.0,87,0.00,,SKC,0.00,VWS V12.07,2013-11-18 12:56:00,
2013-11-18 07:02:00,38.7,35.2,30.13,West,276,3.0,3.0,87,0.00,,SKC,0.00,VWS V12.07,2013-11-18 13:02:00,
2013-11-18 07:08:00,38.5,35.3,30.14,WNW,285,0.0,4.0,88,0.00,,SKC,0.00,VWS V12.07,2013-11-18 13:08:00,
2013-11-18 07:14:00,38.6,35.4,30.14,WSW,242,4.0,5.0,88,0.00,,SKC,0.00,VWS V12.07,2013-11-18 13:14:00,
2013-11-18 07:21:00,38.7,35.5,30.14,SW,215,2.0,6.0,88,0.00,,SKC,0.00,VWS V12.07,2013-11-18 13:21:00,
2013-11-18 07:26:00,38.8,35.3,30.15,WSW,252,3.0,6.0,87,0.00,,SKC,0.00,VWS V12.07,2013-11-18 13:26:00,
2013-11-18 07:32:00,39.0,35.5,30.15,West,276,0.0,4.0,87,0.00,,SKC,0.00,VWS V12.07,2013-11-18 13:32:00,
2013-11-18 07:39:00,39.3,35.8,30.15,WNW,300,0.0,6.0,87,0.00,,SKC,0.00,VWS V12.07,2013-11-18 13:39:00,
2013-11-18 07:45:00,39.5,35.7,30.15,WNW,298,4.0,6.0,86,0.00,,SKC,0.00,VWS V12.07,2013-11-18 13:45:00,
2013-11-18 07:51:00,39.7,35.9,30.16,West,269,3.0,6.0,86,0.00,,SKC,0.00,VWS V12.07,2013-11-18 13:51:00,
2013-11-18 07:56:00,39.9,35.8,30.16,WSW,249,5.0,6.0,85,0.00,,SKC,0.00,VWS V12.07,2013-11-18 13:56:00,
2013-11-18 08:01:00,40.3,36.2,30.17,WNW,285,4.0,9.0,85,0.00,,SKC,0.00,VWS V12.07,2013-11-18 14:01:00,
2013-11-18 08:06:00,40.6,36.2,30.17,WNW,299,5.0,10.0,84,0.00,,SKC,0.00,VWS V12.07,2013-11-18 14:06:00,
2013-11-18 08:11:00,40.9,36.1,30.17,WNW,288,5.0,11.0,83,0.00,,SKC,0.00,VWS V12.07,2013-11-18 14:11:00,
2013-11-18 08:16:00,41.1,36.0,30.17,WNW,284,7.0,11.0,82,0.00,,SKC,0.00,VWS V12.07,2013-11-18 14:16:00,
2013-11-18 08:21:00,41.4,36.3,30.18,WNW,290,7.0,12.0,82,0.00,,SKC,0.00,VWS V12.07,2013-11-18 14:21:00,
2013-11-18 08:27:00,41.7,36.6,30.18,WNW,288,4.0,12.0,82,0.00,,SKC,0.00,VWS V12.07,2013-11-18 14:27:00,
2013-11-18 08:33:00,42.0,36.6,30.18,WNW,297,5.0,9.0,81,0.00,,SKC,0.00,VWS V12.07,2013-11-18 14:33:00,
2013-11-18 08:39:00,42.3,36.6,30.19,West,264,7.0,11.0,80,0.00,,SKC,0.00,VWS V12.07,2013-11-18 14:39:00,
2013-11-18 08:44:00,42.5,36.5,30.19,WNW,293,6.0,11.0,79,0.00,,SKC,0.00,VWS V12.07,2013-11-18 14:44:00,
2013-11-18 08:50:00,42.7,36.0,30.19,WNW,284,7.0,17.0,77,0.00,,SKC,0.00,VWS V12.07,2013-11-18 14:50:00,
2013-11-18 08:56:00,42.9,36.2,30.19,WNW,291,9.0,17.0,77,0.00,,SKC,0.00,VWS V12.07,2013-11-18 14:56:00,
2013-11-18 09:03:00,43.1,36.1,30.20,WNW,294,9.0,11.0,76,0.00,,SKC,0.00,VWS V12.07,2013-11-18 15:03:00,
2013-11-18 09:08:00,43.2,36.2,30.21,WNW,284,5.0,14.0,76,0.00,,SKC,0.00,VWS V12.07,2013-11-18 15:08:00,
2013-11-18 09:14:00,43.5,35.8,30.21,WNW,302,7.0,14.0,74,0.00,,SKC,0.00,VWS V12.07,2013-11-18 15:14:00,
2013-11-18 09:20:00,43.8,35.7,30.21,WNW,283,4.0,14.0,73,0.00,,SKC,0.00,VWS V12.07,2013-11-18 15:20:00,
2013-11-18 09:26:00,43.9,35.5,30.22,WNW,290,10.0,14.0,72,0.00,,SKC,0.00,VWS V12.07,2013-11-18 15:26:00,
2013-11-18 09:31:00,43.9,35.1,30.22,WNW,288,13.0,16.0,71,0.00,,SKC,0.00,VWS V12.07,2013-11-18 15:31:00,
2013-11-18 09:37:00,44.0,35.6,30.22,WNW,291,8.0,18.0,72,0.00,,SKC,0.00,VWS V12.07,2013-11-18 15:37:00,
2013-11-18 09:43:00,44.2,35.8,30.23,WNW,302,4.0,18.0,72,0.00,,SKC,0.00,VWS V12.07,2013-11-18 15:43:00,
2013-11-18 09:49:00,44.7,35.9,30.23,WNW,291,9.0,18.0,71,0.00,,SKC,0.00,VWS V12.07,2013-11-18 15:49:00,
2013-11-18 09:55:00,45.1,35.5,30.24,North,4,7.0,18.0,69,0.00,,SKC,0.00,VWS V12.07,2013-11-18 15:55:00,
2013-11-18 09:58:00,45.1,35.5,30.24,WNW,297,9.0,18.0,69,0.00,,SKC,0.00,VWS V12.07,2013-11-18 15:58:00,
2013-11-18 10:04:00,44.9,35.0,30.24,WNW,295,10.0,17.0,68,0.00,,SKC,0.00,VWS V12.07,2013-11-18 16:04:00,
2013-11-18 10:10:00,45.3,35.4,30.24,WSW,257,6.0,17.0,68,0.00,,SKC,0.00,VWS V12.07,2013-11-18 16:10:00,
2013-11-18 10:16:00,45.7,35.4,30.24,WNW,302,14.0,17.0,67,0.00,,SKC,0.00,VWS V12.07,2013-11-18 16:16:00,
2013-11-18 10:22:00,45.8,35.5,30.24,WNW,297,6.0,17.0,67,0.00,,SKC,0.00,VWS V12.07,2013-11-18 16:22:00,
2013-11-18 10:28:00,45.8,35.1,30.24,WNW,287,7.0,17.0,66,0.00,,SKC,0.00,VWS V12.07,2013-11-18 16:28:00,
2013-11-18 10:34:00,46.0,34.5,30.25,WNW,288,10.0,17.0,64,0.00,,SKC,0.00,VWS V12.07,2013-11-18 16:34:00,
2013-11-18 10:40:00,46.5,34.6,30.25,WNW,286,13.0,17.0,63,0.00,,SKC,0.00,VWS V12.07,2013-11-18 16:40:00,
2013-11-18 10:46:00,46.5,34.6,30.25,WNW,284,9.0,17.0,63,0.00,,SKC,0.00,VWS V12.07,2013-11-18 16:46:00,
2013-11-18 10:52:00,46.6,34.7,30.25,WNW,287,5.0,17.0,63,0.00,,SKC,0.00,VWS V12.07,2013-11-18 16:52:00,
2013-11-18 10:58:00,47.3,34.5,30.25,WNW,297,6.0,17.0,61,0.00,,SKC,0.00,VWS V12.07,2013-11-18 16:58:00,
2013-11-18 11:04:00,47.6,34.8,30.25,WNW,295,4.0,11.0,61,0.00,,SKC,0.00,VWS V12.07,2013-11-18 17:04:00,
2013-11-18 11:10:00,47.8,34.6,30.25,West,266,8.0,14.0,60,0.00,,SKC,0.00,VWS V12.07,2013-11-18 17:10:00,
2013-11-18 11:16:00,48.0,33.5,30.25,WNW,295,9.0,14.0,57,0.00,,SKC,0.00,VWS V12.07,2013-11-18 17:16:00,
2013-11-18 11:22:00,48.4,34.3,30.25,WNW,297,5.0,14.0,58,0.00,,SKC,0.00,VWS V12.07,2013-11-18 17:22:00,
2013-11-18 11:28:00,48.8,34.3,30.25,NNW,345,5.0,14.0,57,0.00,,SKC,0.00,VWS V12.07,2013-11-18 17:28:00,
2013-11-18 11:34:00,48.7,33.7,30.25,WNW,285,11.0,15.0,56,0.00,,SKC,0.00,VWS V12.07,2013-11-18 17:34:00,
2013-11-18 11:40:00,48.7,33.3,30.24,WNW,295,11.0,17.0,55,0.00,,SKC,0.00,VWS V12.07,2013-11-18 17:40:00,
2013-11-18 11:46:00,48.7,32.8,30.24,NNW,333,3.0,22.0,54,0.00,,SKC,0.00,VWS V12.07,2013-11-18 17:46:00,
2013-11-18 11:52:00,48.9,33.0,30.24,WNW,294,8.0,22.0,54,0.00,,SKC,0.00,VWS V12.07,2013-11-18 17:52:00,
2013-11-18 11:58:00,49.3,33.8,30.24,WNW,287,9.0,22.0,55,0.00,,SKC,0.00,VWS V12.07,2013-11-18 17:58:00,
2013-11-18 12:04:00,49.7,33.3,30.24,WNW,285,4.0,14.0,53,0.00,,SKC,0.00,VWS V12.07,2013-11-18 18:04:00,
2013-11-18 12:10:00,49.7,32.8,30.24,WNW,297,15.0,18.0,52,0.00,,SKC,0.00,VWS V12.07,2013-11-18 18:10:00,
2013-11-18 12:16:00,49.6,33.2,30.24,WNW,302,7.0,18.0,53,0.00,,SKC,0.00,VWS V12.07,2013-11-18 18:16:00,
2013-11-18 12:22:00,49.9,32.5,30.24,WNW,285,11.0,18.0,51,0.00,,SKC,0.00,VWS V12.07,2013-11-18 18:22:00,
2013-11-18 12:27:00,50.2,32.8,30.24,WNW,295,12.0,18.0,51,0.00,,SKC,0.00,VWS V12.07,2013-11-18 18:27:00,
2013-11-18 12:33:00,50.7,32.8,30.24,NW,325,11.0,14.0,50,0.00,,SKC,0.00,VWS V12.07,2013-11-18 18:33:00,
2013-11-18 12:39:00,50.7,31.7,30.24,WNW,290,5.0,17.0,48,0.00,,SKC,0.00,VWS V12.07,2013-11-18 18:39:00,
2013-11-18 12:45:00,51.0,33.0,30.24,West,273,6.0,17.0,50,0.00,,SKC,0.00,VWS V12.07,2013-11-18 18:45:00,
2013-11-18 12:51:00,51.4,32.4,30.24,West,276,11.0,18.0,48,0.00,,SKC,0.00,VWS V12.07,2013-11-18 18:51:00,
2013-11-18 12:57:00,51.5,32.5,30.24,WNW,290,9.0,18.0,48,0.00,,SKC,0.00,VWS V12.07,2013-11-18 18:57:00,
2013-11-18 13:03:00,52.0,34.0,30.23,West,277,3.0,8.0,50,0.00,,SKC,0.00,VWS V12.07,2013-11-18 19:03:00,
2013-11-18 13:09:00,52.4,31.7,30.24,NW,305,10.0,12.0,45,0.00,,SKC,0.00,VWS V12.07,2013-11-18 19:09:00,
2013-11-18 13:15:00,52.3,30.5,30.24,WNW,288,9.0,17.0,43,0.00,,SKC,0.00,VWS V12.07,2013-11-18 19:15:00,
2013-11-18 13:21:00,52.4,31.7,30.24,NW,309,4.0,17.0,45,0.00,,SKC,0.00,VWS V12.07,2013-11-18 19:21:00,
2013-11-18 13:27:00,52.8,31.5,30.24,WNW,297,7.0,17.0,44,0.00,,SKC,0.00,VWS V12.07,2013-11-18 19:27:00,
2013-11-18 13:33:00,52.8,30.4,30.24,WNW,300,11.0,14.0,42,0.00,,SKC,0.00,VWS V12.07,2013-11-18 19:33:00,
2013-11-18 13:39:00,52.8,30.4,30.24,WNW,294,10.0,15.0,42,0.00,,SKC,0.00,VWS V12.07,2013-11-18 19:39:00,
2013-11-18 13:45:00,52.9,30.5,30.24,North,354,2.0,15.0,42,0.00,,SKC,0.00,VWS V12.07,2013-11-18 19:45:00,
2013-11-18 13:51:00,53.2,31.3,30.24,WNW,291,1.0,15.0,43,0.00,,SKC,0.00,VWS V12.07,2013-11-18 19:51:00,
2013-11-18 13:57:00,53.6,31.1,30.24,WNW,297,8.0,15.0,42,0.00,,SKC,0.00,VWS V12.07,2013-11-18 19:57:00,
2013-11-18 14:03:00,53.5,31.0,30.24,NNW,328,6.0,7.0,42,0.00,,SKC,0.00,VWS V12.07,2013-11-18 20:03:00,
2013-11-18 14:09:00,53.5,31.0,30.24,WNW,288,8.0,15.0,42,0.00,,SKC,0.00,VWS V12.07,2013-11-18 20:09:00,
2013-11-18 14:15:00,53.5,31.0,30.24,WNW,295,4.0,15.0,42,0.00,,SKC,0.00,VWS V12.07,2013-11-18 20:15:00,
2013-11-18 14:21:00,53.7,30.0,30.24,NW,305,5.0,15.0,40,0.00,,SKC,0.00,VWS V12.07,2013-11-18 20:21:00,
2013-11-18 14:27:00,53.6,30.5,30.24,West,269,9.0,15.0,41,0.00,,SKC,0.00,VWS V12.07,2013-11-18 20:27:00,
2013-11-18 14:33:00,53.7,30.0,30.24,West,277,9.0,12.0,40,0.00,,SKC,0.00,VWS V12.07,2013-11-18 20:33:00,
2013-11-18 14:39:00,53.7,30.6,30.24,NW,305,7.0,13.0,41,0.00,,SKC,0.00,VWS V12.07,2013-11-18 20:39:00,
2013-11-18 14:45:00,53.9,31.9,30.25,WNW,295,2.0,13.0,43,0.00,,SKC,0.00,VWS V12.07,2013-11-18 20:45:00,
2013-11-18 14:51:00,54.1,30.9,30.24,WNW,290,6.0,13.0,41,0.00,,SKC,0.00,VWS V12.07,2013-11-18 20:51:00,
2013-11-18 14:57:00,54.0,30.9,30.24,WNW,300,5.0,13.0,41,0.00,,SKC,0.00,VWS V12.07,2013-11-18 20:57:00,
2013-11-18 15:03:00,54.0,30.9,30.25,WNW,300,3.0,12.0,41,0.00,,SKC,0.00,VWS V12.07,2013-11-18 21:03:00,
2013-11-18 15:09:00,53.7,30.6,30.25,WNW,301,9.0,14.0,41,0.00,,SKC,0.00,VWS V12.07,2013-11-18 21:09:00,
2013-11-18 15:15:00,53.8,31.9,30.25,WNW,284,2.0,14.0,43,0.00,,SKC,0.00,VWS V12.07,2013-11-18 21:15:00,
2013-11-18 15:21:00,53.7,31.2,30.25,NW,318,1.0,14.0,42,0.00,,SKC,0.00,VWS V12.07,2013-11-18 21:21:00,
2013-11-18 15:27:00,53.4,30.9,30.25,NW,305,2.0,14.0,42,0.00,,SKC,0.00,VWS V12.07,2013-11-18 21:27:00,
2013-11-18 15:33:00,53.2,31.3,30.25,NW,305,1.0,6.0,43,0.00,,SKC,0.00,VWS V12.07,2013-11-18 21:33:00,
2013-11-18 15:39:00,53.3,32.0,30.25,WNW,290,1.0,6.0,44,0.00,,SKC,0.00,VWS V12.07,2013-11-18 21:39:00,
2013-11-18 15:45:00,53.3,31.4,30.26,NNE,16,1.0,12.0,43,0.00,,SKC,0.00,VWS V12.07,2013-11-18 21:45:00,
2013-11-18 15:51:00,53.1,31.2,30.26,WNW,294,6.0,12.0,43,0.00,,SKC,0.00,VWS V12.07,2013-11-18 21:51:00,
2013-11-18 15:57:00,52.9,31.6,30.26,WNW,290,7.0,12.0,44,0.00,,SKC,0.00,VWS V12.07,2013-11-18 21:57:00,
2013-11-18 16:03:00,52.6,31.3,30.26,NW,309,5.0,9.0,44,0.00,,SKC,0.00,VWS V12.07,2013-11-18 22:03:00,
2013-11-18 16:09:00,52.4,31.1,30.26,WNW,295,4.0,9.0,44,0.00,,SKC,0.00,VWS V12.07,2013-11-18 22:09:00,
2013-11-18 16:15:00,52.2,31.5,30.26,WNW,290,5.0,9.0,45,0.00,,SKC,0.00,VWS V12.07,2013-11-18 22:15:00,
2013-11-18 16:21:00,51.9,31.2,30.26,WNW,285,3.0,9.0,45,0.00,,SKC,0.00,VWS V12.07,2013-11-18 22:21:00,
2013-11-18 16:27:00,51.6,31.5,30.27,WNW,287,2.0,9.0,46,0.00,,SKC,0.00,VWS V12.07,2013-11-18 22:27:00,
2013-11-18 16:33:00,51.3,31.8,30.27,NW,312,1.0,4.0,47,0.00,,SKC,0.00,VWS V12.07,2013-11-18 22:33:00,
2013-11-18 16:39:00,50.8,31.8,30.27,WNW,297,1.0,4.0,48,0.00,,SKC,0.00,VWS V12.07,2013-11-18 22:39:00,
2013-11-18 16:45:00,50.2,31.8,30.27,WNW,288,1.0,4.0,49,0.00,,SKC,0.00,VWS V12.07,2013-11-18 22:45:00,
2013-11-18 16:51:00,49.5,31.6,30.27,West,269,0.0,4.0,50,0.00,,SKC,0.00,VWS V12.07,2013-11-18 22:51:00,
2013-11-18 16:57:00,48.7,31.9,30.27,West,269,0.0,4.0,52,0.00,,SKC,0.00,VWS V12.07,2013-11-18 22:57:00,
2013-11-18 17:03:00,47.9,31.6,30.27,West,269,0.0,0.0,53,0.00,,SKC,0.00,VWS V12.07,2013-11-18 23:03:00,
2013-11-18 17:09:00,47.2,31.4,30.27,NNW,330,0.0,0.0,54,0.00,,SKC,0.00,VWS V12.07,2013-11-18 23:09:00,
2013-11-18 17:15:00,46.6,31.3,30.27,NNW,332,0.0,1.0,55,0.00,,SKC,0.00,VWS V12.07,2013-11-18 23:15:00,
2013-11-18 17:21:00,46.2,31.4,30.28,North,1,0.0,1.0,56,0.00,,SKC,0.00,VWS V12.07,2013-11-18 23:21:00,
2013-11-18 17:27:00,45.8,31.0,30.28,North,1,0.0,1.0,56,0.00,,SKC,0.00,VWS V12.07,2013-11-18 23:27:00,
2013-11-18 17:38:00,44.4,30.6,30.28,North,1,0.0,0.0,58,0.00,,SKC,0.00,VWS V12.07,2013-11-18 23:38:00,
2013-11-18 17:44:00,44.0,31.0,30.28,North,1,0.0,0.0,60,0.00,,SKC,0.00,VWS V12.07,2013-11-18 23:44:00,
2013-11-18 17:50:00,43.6,30.6,30.28,North,1,0.0,0.0,60,0.00,,SKC,0.00,VWS V12.07,2013-11-18 23:50:00,
2013-11-18 17:56:00,43.1,30.6,30.28,North,1,0.0,1.0,61,0.00,,SKC,0.00,VWS V12.07,2013-11-18 23:56:00,
2013-11-18 18:02:00,43.6,31.0,30.28,North,1,0.0,0.0,61,0.00,,SKC,0.00,VWS V12.07,2013-11-19 00:02:00,
2013-11-18 18:08:00,44.1,31.1,30.28,North,1,0.0,0.0,60,0.00,,SKC,0.00,VWS V12.07,2013-11-19 00:08:00,
2013-11-18 18:14:00,44.3,30.9,30.28,North,1,0.0,1.0,59,0.00,,SKC,0.00,VWS V12.07,2013-11-19 00:14:00,
2013-11-18 18:20:00,44.1,30.7,30.28,North,1,0.0,1.0,59,0.00,,SKC,0.00,VWS V12.07,2013-11-19 00:20:00,
2013-11-18 18:26:00,43.5,30.5,30.29,North,1,0.0,1.0,60,0.00,,SKC,0.00,VWS V12.07,2013-11-19 00:26:00,
2013-11-18 18:32:00,42.7,30.6,30.29,North,1,0.0,0.0,62,0.00,,SKC,0.00,VWS V12.07,2013-11-19 00:32:00,
2013-11-18 18:38:00,42.4,30.3,30.29,North,1,0.0,0.0,62,0.00,,SKC,0.00,VWS V12.07,2013-11-19 00:38:00,
2013-11-18 18:44:00,41.7,30.0,30.29,North,1,0.0,0.0,63,0.00,,SKC,0.00,VWS V12.07,2013-11-19 00:44:00,
2013-11-18 18:50:00,41.7,30.4,30.29,North,360,0.0,0.0,64,0.00,,SKC,0.00,VWS V12.07,2013-11-19 00:50:00,
2013-11-18 18:56:00,42.3,30.6,30.29,North,1,0.0,0.0,63,0.00,,SKC,0.00,VWS V12.07,2013-11-19 00:56:00,
2013-11-18 19:02:00,42.8,31.1,30.30,North,1,0.0,0.0,63,0.00,,SKC,0.00,VWS V12.07,2013-11-19 01:02:00,
2013-11-18 19:08:00,42.9,30.8,30.30,North,1,0.0,0.0,62,0.00,,SKC,0.00,VWS V12.07,2013-11-19 01:08:00,
2013-11-18 19:14:00,42.8,30.7,30.30,North,1,0.0,0.0,62,0.00,,SKC,0.00,VWS V12.07,2013-11-19 01:14:00,
2013-11-18 19:20:00,42.5,30.8,30.30,NNW,334,0.0,0.0,63,0.00,,SKC,0.00,VWS V12.07,2013-11-19 01:20:00,
2013-11-18 19:26:00,42.1,30.4,30.30,NNW,334,0.0,0.0,63,0.00,,SKC,0.00,VWS V12.07,2013-11-19 01:26:00,
2013-11-18 19:32:00,41.7,30.4,30.30,NNW,334,0.0,0.0,64,0.00,,SKC,0.00,VWS V12.07,2013-11-19 01:32:00,
2013-11-18 19:38:00,41.7,30.8,30.30,NNW,335,0.0,0.0,65,0.00,,SKC,0.00,VWS V12.07,2013-11-19 01:38:00,
2013-11-18 19:44:00,42.3,31.0,30.31,NNW,336,0.0,0.0,64,0.00,,SKC,0.00,VWS V12.07,2013-11-19 01:44:00,
2013-11-18 19:50:00,42.7,31.0,30.31,NNW,336,0.0,0.0,63,0.00,,SKC,0.00,VWS V12.07,2013-11-19 01:50:00,
2013-11-18 19:56:00,42.8,31.1,30.31,NNW,336,0.0,0.0,63,0.00,,SKC,0.00,VWS V12.07,2013-11-19 01:56:00,
2013-11-18 20:02:00,42.9,31.2,30.31,North,4,0.0,0.0,63,0.00,,SKC,0.00,VWS V12.07,2013-11-19 02:02:00,
2013-11-18 20:08:00,43.0,30.9,30.31,North,360,0.0,1.0,62,0.00,,SKC,0.00,VWS V12.07,2013-11-19 02:08:00,
2013-11-18 20:14:00,42.9,30.8,30.31,NNE,30,0.0,1.0,62,0.00,,SKC,0.00,VWS V12.07,2013-11-19 02:14:00,
2013-11-18 20:20:00,42.7,31.0,30.31,NNE,26,0.0,2.0,63,0.00,,SKC,0.00,VWS V12.07,2013-11-19 02:20:00,
2013-11-18 20:26:00,42.8,30.7,30.31,NNE,22,0.0,2.0,62,0.00,,SKC,0.00,VWS V12.07,2013-11-19 02:26:00,
2013-11-18 20:32:00,42.6,30.9,30.31,NNE,21,0.0,0.0,63,0.00,,SKC,0.00,VWS V12.07,2013-11-19 02:32:00,
2013-11-18 20:38:00,42.2,30.5,30.31,NNE,21,0.0,0.0,63,0.00,,SKC,0.00,VWS V12.07,2013-11-19 02:38:00,
2013-11-18 20:44:00,41.7,30.4,30.31,NNE,21,0.0,0.0,64,0.00,,SKC,0.00,VWS V12.07,2013-11-19 02:44:00,
2013-11-18 20:50:00,41.2,30.0,30.32,NNE,21,0.0,0.0,64,0.00,,SKC,0.00,VWS V12.07,2013-11-19 02:50:00,
2013-11-18 20:56:00,40.6,30.1,30.32,NNE,21,0.0,0.0,66,0.00,,SKC,0.00,VWS V12.07,2013-11-19 02:56:00,
2013-11-18 21:02:00,40.2,29.8,30.32,NNE,22,0.0,0.0,66,0.00,,SKC,0.00,VWS V12.07,2013-11-19 03:02:00,
2013-11-18 21:08:00,39.8,29.8,30.32,NNE,22,0.0,0.0,67,0.00,,SKC,0.00,VWS V12.07,2013-11-19 03:08:00,
2013-11-18 21:14:00,39.4,29.7,30.33,NNE,21,0.0,0.0,68,0.00,,SKC,0.00,VWS V12.07,2013-11-19 03:14:00,
2013-11-18 21:20:00,38.6,29.3,30.33,NNE,22,0.0,0.0,69,0.00,,SKC,0.00,VWS V12.07,2013-11-19 03:20:00,
2013-11-18 21:26:00,38.0,29.5,30.33,NNE,21,0.0,0.0,71,0.00,,SKC,0.00,VWS V12.07,2013-11-19 03:26:00,
2013-11-18 21:32:00,37.8,29.3,30.33,NNE,21,0.0,0.0,71,0.00,,SKC,0.00,VWS V12.07,2013-11-19 03:32:00,
2013-11-18 21:38:00,37.5,29.0,30.33,NNE,22,0.0,0.0,71,0.00,,SKC,0.00,VWS V12.07,2013-11-19 03:38:00,
2013-11-18 21:44:00,37.0,29.2,30.33,NNE,22,0.0,0.0,73,0.00,,SKC,0.00,VWS V12.07,2013-11-19 03:44:00,
2013-11-18 21:50:00,36.6,29.1,30.33,NNE,21,0.0,0.0,74,0.00,,SKC,0.00,VWS V12.07,2013-11-19 03:50:00,
2013-11-18 21:56:00,36.5,29.3,30.33,NNE,22,0.0,0.0,75,0.00,,SKC,0.00,VWS V12.07,2013-11-19 03:56:00,
2013-11-18 22:02:00,36.7,29.5,30.33,NNE,22,0.0,0.0,75,0.00,,SKC,0.00,VWS V12.07,2013-11-19 04:02:00,
2013-11-18 22:08:00,36.6,29.4,30.34,NNE,21,0.0,0.0,75,0.00,,SKC,0.00,VWS V12.07,2013-11-19 04:08:00,
2013-11-18 22:14:00,36.1,29.0,30.34,NNE,21,0.0,0.0,75,0.00,,SKC,0.00,VWS V12.07,2013-11-19 04:14:00,
2013-11-18 22:20:00,35.5,28.7,30.34,NNE,21,0.0,0.0,76,0.00,,SKC,0.00,VWS V12.07,2013-11-19 04:20:00,
2013-11-18 22:26:00,34.8,28.6,30.34,NNE,22,0.0,0.0,78,0.00,,SKC,0.00,VWS V12.07,2013-11-19 04:26:00,
2013-11-18 22:32:00,34.4,28.6,30.34,NNE,22,0.0,0.0,79,0.00,,SKC,0.00,VWS V12.07,2013-11-19 04:32:00,
2013-11-18 22:38:00,34.7,28.9,30.34,NNE,22,0.0,0.0,79,0.00,,SKC,0.00,VWS V12.07,2013-11-19 04:38:00,
2013-11-18 22:44:00,34.6,28.5,30.34,NNE,21,0.0,0.0,78,0.00,,SKC,0.00,VWS V12.07,2013-11-19 04:44:00,
2013-11-18 22:50:00,34.0,28.2,30.34,NNE,20,0.0,0.0,79,0.00,,SKC,0.00,VWS V12.07,2013-11-19 04:50:00,
2013-11-18 22:56:00,34.5,29.0,30.34,NNE,21,0.0,0.0,80,0.00,,SKC,0.00,VWS V12.07,2013-11-19 04:56:00,
2013-11-18 23:02:00,34.7,28.9,30.34,NNE,22,0.0,0.0,79,0.00,,SKC,0.00,VWS V12.07,2013-11-19 05:02:00,
2013-11-18 23:05:00,34.7,28.9,30.34,NNE,21,0.0,0.0,79,0.00,,SKC,0.00,VWS V12.07,2013-11-19 05:05:00,
2013-11-18 23:11:00,34.8,28.6,30.34,NNE,20,0.0,0.0,78,0.00,,SKC,0.00,VWS V12.07,2013-11-19 05:11:00,
2013-11-18 23:14:00,34.8,29.0,30.34,NNE,20,0.0,0.0,79,0.00,,SKC,0.00,VWS V12.07,2013-11-19 05:14:00,
2013-11-18 23:20:00,36.3,29.5,30.34,NNE,21,0.0,0.0,76,0.00,,SKC,0.00,VWS V12.07,2013-11-19 05:20:00,
2013-11-18 23:26:00,36.6,29.4,30.34,NNE,22,0.0,0.0,75,0.00,,SKC,0.00,VWS V12.07,2013-11-19 05:26:00,
2013-11-18 23:32:00,37.1,29.6,30.34,NNE,20,0.0,0.0,74,0.00,,SKC,0.00,VWS V12.07,2013-11-19 05:32:00,
2013-11-18 23:38:00,37.0,29.2,30.34,NNE,22,0.0,0.0,73,0.00,,SKC,0.00,VWS V12.07,2013-11-19 05:38:00,
2013-11-18 23:41:00,37.0,29.2,30.34,NNE,21,0.0,0.0,73,0.00,,SKC,0.00,VWS V12.07,2013-11-19 05:41:00,
2013-11-18 23:47:00,36.6,28.8,30.35,NNE,22,0.0,0.0,73,0.00,,SKC,0.00,VWS V12.07,2013-11-19 05:47:00,
2013-11-18 23:53:00,35.5,28.4,30.35,NNE,22,0.0,0.0,75,0.00,,SKC,0.00,VWS V12.07,2013-11-19 05:53:00,
2013-11-18 23:59:00,34.5,27.7,30.35,NNE,22,0.0,0.0,76,0.00,,SKC,0.00,VWS V12.07,2013-11-19 05:59:00,